星链-3088 (STARLINK-3088 )

导读 | 豆包AI

STARLINK-3088是美国SpaceX星链互联网卫星星座中的一员,于2021年9月14日发射升空。它属于星链低轨卫星项目,工作在近地轨道,旨在为全球范围提供高速低延迟的宽带互联网服务,是星链星座实现全球组网布局的重要组成部分,推进了星链全球覆盖的建设进程。

Basic Information
目录编号:
49163
目录名称:
STARLINK-3088
国际标识:
2021-082AK
轨道中心:
EARTH
卫星名称:
星链-3088
卫星全名:
星链-3088 (STARLINK-3088 )
卫星状态:
在轨 (已飞行1642 天)
发射日期:
2021-09-14 UTC
国别 :
美国 (US)
星等 :
--
Orbit Information
数据来源 国际轨道数据 AOE轨道数据
星历时间 2026-03-14T06:08:05+0800
21小时前
查看轨道信息
2026-03-13T17:00:00+0800
1天前
查看轨道信息
半长轴 6952.701km 6952.732km
偏心率 0.0002144 0.0001481
轨道倾角 69.998° 70.008°
近地点辐角 268.505° 327.185°
升交点赤经 264.580° 265.956°
平近点角 91.586° 323.321°
近地点 573.073km 573.565km
远地点 576.055km 575.625km
周期 96.159分钟 96.160分钟
每日圈数 14.975196 14.975095
Detailed Information
固有亮度:
5
最大亮度:
2.5
卫星平台:
Starlink v1.5
覆盖范围:
全球
运营商:
太空探索技术公司
运营商所在国:
美国
制造商(研发单位):
太空探索技术公司
制造商所在国:
美国
使用方式:
暂无
Satellite Introduction
星链(Starlink)计划是由太空探索技术公司(SpaceX)提出的一个巨型低轨卫星互联网星座项目,计划在2019年至2024年间在太空搭建由约1.2万颗卫星组成的“星链”网络,其中1584颗将部署在地球上空550千米处的近地轨道,并从2020年开始工作。该卫星仍在工作。
2D Orbit Map
3D Orbit Map
Orbit Altitude Analysis Chart
Orbit Inclination Analysis Chart
Orbit Comprehensive Analysis Chart
View Comprehensive Chart